KA9MAC-13 Weather Reports


Display with metric or nautical units.
time (UTC)temp
F
wind
direction
speed
MPH
gust
MPH
rain 1hr
in
rain 24hr
in
rain mn
in
humidity
%
barometer
mb
20260901080429 77 315 4.0 9.0 0.00 0.00 0.00 76 1013.5
20260901075924 77 225 3.0 9.0 0.00 0.00 0.00 75 1013.5
20260901075419 78 203 5.0 9.0 0.00 0.00 0.00 75 1013.5
20260901074915 78 203 5.0 9.0 0.00 0.00 0.00 75 1013.5
20260901074410 78 203 5.0 9.0 0.00 0.00 0.00 74 1013.5
20260901073910 78 225 5.0 7.0 0.00 0.00 0.00 75 1013.5
20260901073410 78 180 4.0 7.0 0.00 0.00 0.00 75 1013.5
20260901072905 77 248 2.0 7.0 0.00 0.00 0.00 75 1013.5
20260901072405 77 225 5.0 7.0 0.00 0.00 0.00 75 1013.5
20260901071859 77 248 2.0 7.0 0.00 0.00 0.00 75 1013.5
20260901071354 78 248 2.0 7.0 0.00 0.00 0.00 76 1013.5
20260901070850 78 180 7.0 7.0 0.00 0.00 0.00 75 1013.5
20260901070345 77 180 5.0 7.0 0.00 0.00 0.00 75 1013.5
20260901065845 77 225 5.0 7.0 0.00 0.00 0.00 76 1013.9
20260901065339 77 248 4.0 7.0 0.00 0.00 0.00 76 1013.9
20260901064838 77 225 4.0 6.0 0.00 0.00 0.00 76 1013.9
20260901064335 77 203 5.0 6.0 0.00 0.00 0.00 76 1013.9
20260901063830 77 158 4.0 6.0 0.00 0.00 0.00 77 1013.9
20260901063324 77 225 4.0 6.0 0.00 0.00 0.00 77 1013.9
20260901062821 77 203 2.0 6.0 0.00 0.00 0.00 77 1013.9
20260901062315 77 248 2.0 6.0 0.00 0.00 0.00 77 1013.9
20260901061809 77 203 2.0 6.0 0.00 0.00 0.00 77 1013.9
20260901061304 77 180 2.0 6.0 0.00 0.00 0.00 77 1013.9
20260901060759 77 203 2.0 6.0 0.00 0.00 0.00 77 1013.9
20260901060255 77 180 4.0 6.0 0.00 0.00 0.00 77 1013.9
20260901055749 77 180 5.0 5.0 0.00 0.00 0.00 77 1013.9
20260901055244 77 180 2.0 5.0 0.00 0.00 0.00 77 1013.9
20260901054739 77 180 2.0 5.0 0.00 0.00 0.00 77 1014.2
20260901054234 77 180 4.0 5.0 0.00 0.00 0.00 76 1014.2
20260901053729 77 180 2.0 5.0 0.00 0.00 0.00 77 1014.2
20260901053224 77 135 2.0 5.0 0.00 0.00 0.00 77 1014.2
20260901052719 77 180 2.0 5.0 0.00 0.00 0.00 77 1014.2
20260901052214 77 158 2.0 5.0 0.00 0.00 0.00 75 1013.9
20260901051709 77 158 2.0 5.0 0.00 0.00 0.00 76 1013.9
20260901051204 77 158 2.0 5.0 0.00 0.00 0.00 77 1013.9
20260901050659 77 158 2.0 5.0 0.00 0.00 0.00 77 1013.9
20260901050155 77 113 2.0 5.0 0.00 0.00 0.00 76 1013.9
20260901045650 77 180 2.0 5.0 0.00 0.00 0.00 77 1013.9
20260901045144 77 180 2.0 5.0 0.00 0.00 0.00 77 1013.9
20260901044639 77 158 2.0 5.0 0.00 0.00 0.00 77 1013.9
20260901044134 77 180 3.0 5.0 0.00 0.00 0.00 76 1013.9
20260901043629 77 180 4.0 5.0 0.00 0.00 0.00 77 1013.9
20260901043124 77 158 2.0 5.0 0.00 0.00 0.00 78 1013.9
20260901042620 77 158 2.0 5.0 0.00 0.00 0.00 78 1013.9
20260901042114 76 180 2.0 4.0 0.00 0.00 0.00 79 1013.9
20260901041609 76 158 2.0 4.0 0.00 0.00 0.00 80 1013.9
20260901041104 76 158 2.0 4.0 0.00 0.00 0.00 80 1013.9
20260901040559 77 158 0.0 4.0 0.00 0.00 0.00 80 1013.9
20260901040054 77 180 0.0 7.0 0.00 0.00 0.00 79 1013.9
20260901035549 77 158 2.0 7.0 0.00 0.00 0.02 79 1013.9
20260901035044 78 113 0.0 7.0 0.00 0.00 0.02 77 1013.9
20260901034539 78 113 2.0 7.0 0.00 0.00 0.02 76 1013.9
20260901034034 78 113 2.0 8.0 0.00 0.00 0.02 76 1013.9
20260901033529 79 113 0.0 12.0 0.00 0.00 0.02 76 1013.9
20260901033025 79 203 1.0 12.0 0.00 0.00 0.02 75 1013.9
20260901032519 80 203 2.0 12.0 0.00 0.00 0.02 73 1013.9
20260901032014 80 248 2.0 12.0 0.00 0.00 0.02 73 1013.9
20260901031510 80 203 2.0 12.0 0.00 0.00 0.02 72 1013.9
20260901031005 80 225 2.0 12.0 0.00 0.00 0.02 72 1013.9
20260901030459 81 293 2.0 12.0 0.00 0.00 0.02 72 1013.9
20260901025955 81 270 5.0 12.0 0.00 0.00 0.02 71 1013.9
20260901025450 81 270 4.0 12.0 0.00 0.00 0.02 72 1013.5
20260901024944 81 180 2.0 12.0 0.00 0.00 0.02 72 1013.5
20260901024440 81 113 5.0 12.0 0.00 0.00 0.02 72 1012.9
20260901023935 81 23 4.0 12.0 0.00 0.00 0.02 72 1012.9
20260901023429 81 158 5.0 12.0 0.00 0.00 0.02 73 1013.2
20260901022925 81 158 12.0 12.0 0.00 0.00 0.02 72 1013.2
20260901022420 81 180 5.0 11.0 0.00 0.00 0.02 73 1013.2
20260901021915 81 180 6.0 11.0 0.00 0.00 0.02 72 1013.5
20260901021409 81 180 4.0 11.0 0.00 0.00 0.02 73 1013.5
20260901020904 82 180 6.0 11.0 0.00 0.00 0.02 71 1013.9
20260901020400 82 203 2.0 11.0 0.00 0.00 0.02 72 1013.9
20260901015855 82 203 5.0 11.0 0.00 0.00 0.02 71 1014.2
20260901015349 82 180 6.0 11.0 0.00 0.00 0.02 71 1014.2
20260901014848 82 203 6.0 11.0 0.00 0.00 0.02 71 1014.2
20260901014345 82 180 5.0 11.0 0.00 0.00 0.02 71 1014.2
20260901013839 82 180 3.0 11.0 0.00 0.00 0.02 72 1014.2
20260901013335 82 338 4.0 11.0 0.00 0.00 0.02 72 1013.9
20260901012835 83 203 7.0 11.0 0.00 0.00 0.02 69 1013.9
20260901012330 83 203 7.0 11.0 0.00 0.00 0.02 68 1013.9
20260901011825 83 135 8.0 11.0 0.00 0.00 0.02 69 1013.9
20260901011320 83 158 7.0 11.0 0.00 0.00 0.02 70 1013.9
20260901010815 83 180 8.0 11.0 0.00 0.00 0.02 70 1013.5
20260901010309 83 180 7.0 11.0 0.00 0.00 0.02 71 1013.5
20260901005805 83 225 4.0 9.0 0.00 0.00 0.02 71 1013.2
20260901005300 83 158 9.0 9.0 0.00 0.00 0.02 70 1013.2
20260901004755 83 180 9.0 9.0 0.00 0.00 0.02 69 1013.5
20260901004250 83 203 4.0 9.0 0.00 0.00 0.02 70 1013.5
20260901003744 83 225 7.0 9.0 0.00 0.00 0.02 70 1013.5
20260901003240 83 158 5.0 9.0 0.00 0.00 0.02 70 1013.5
20260901002735 83 180 2.0 9.0 0.00 0.00 0.02 70 1013.5
20260901002230 83 158 5.0 8.0 0.00 0.00 0.02 70 1013.5
20260901001725 83 158 7.0 8.0 0.00 0.00 0.02 70 1013.5
20260901001220 84 180 5.0 8.0 0.00 0.00 0.02 70 1013.5
20260901000715 84 158 7.0 7.0 0.00 0.00 0.02 70 1014.2
20260901000211 84 203 3.0 7.0 0.00 0.00 0.02 70 1014.2
20260831235705 84 180 2.0 7.0 0.00 0.00 0.02 70 1013.9
20260831235200 84 180 5.0 7.0 0.00 0.00 0.02 69 1013.9
20260831234655 84 158 2.0 7.0 0.00 0.00 0.02 69 1013.9
20260831234150 85 203 6.0 7.0 0.00 0.00 0.02 69 1013.9
20260831233645 85 180 6.0 7.0 0.00 0.00 0.02 69 1013.9
20260831233140 85 158 4.0 7.0 0.00 0.00 0.02 68 1013.9
20260831232635 85 180 4.0 8.0 0.00 0.00 0.02 68 1013.9
20260831232129 86 180 5.0 8.0 0.00 0.00 0.02 67 1013.9
20260831231625 86 180 4.0 8.0 0.00 0.00 0.02 67 1013.9
20260831231120 86 180 4.0 8.0 0.00 0.00 0.02 68 1014.2
20260831230615 86 225 3.0 8.0 0.00 0.00 0.02 67 1014.2
20260831230110 86 270 2.0 8.0 0.00 0.00 0.02 66 1014.2
20260831225604 86 248 2.0 9.0 0.00 0.00 0.02 66 1014.2
20260831225100 86 293 2.0 9.0 0.00 0.00 0.02 66 1014.2
20260831224554 87 180 4.0 9.0 0.00 0.00 0.02 65 1014.2
20260831224050 87 180 3.0 9.0 0.00 0.00 0.02 66 1014.2
20260831223544 86 180 5.0 10.0 0.00 0.00 0.02 67 1013.9
20260831223041 87 158 4.0 10.0 0.00 0.00 0.02 68 1013.9
20260831222534 87 113 4.0 11.0 0.00 0.00 0.02 66 1013.9
20260831222030 87 180 4.0 11.0 0.00 0.00 0.02 67 1013.5
20260831221527 88 180 5.0 12.0 0.00 0.00 0.02 67 1013.5
20260831221019 87 180 6.0 12.0 0.00 0.00 0.02 67 1013.5
20260831220515 87 113 5.0 12.0 0.00 0.00 0.02 66 1013.5
20260831220009 87 203 5.0 12.0 0.00 0.00 0.02 65 1013.5
20260831215505 88 135 7.0 14.0 0.00 0.00 0.02 65 1013.5
20260831214959 88 203 5.0 14.0 0.00 0.00 0.02 63 1013.5
20260831214454 90 158 4.0 14.0 0.00 0.00 0.02 62 1013.5
20260831213949 90 158 3.0 14.0 0.00 0.00 0.02 62 1013.5
20260831213444 90 180 6.0 14.0 0.00 0.00 0.02 60 1013.9
20260831212940 90 180 7.0 14.0 0.00 0.00 0.02 61 1013.9
20260831212435 89 180 10.0 14.0 0.00 0.00 0.02 62 1013.9
20260831211929 90 180 11.0 14.0 0.00 0.00 0.02 61 1013.9
20260831211425 90 90 5.0 14.0 0.00 0.00 0.02 61 1013.9
20260831210919 91 180 6.0 14.0 0.00 0.00 0.02 60 1013.9
20260831210415 91 180 11.0 14.0 0.00 0.00 0.02 58 1013.9
20260831205910 90 180 9.0 14.0 0.00 0.00 0.02 60 1013.5
20260831205408 90 180 5.0 14.0 0.00 0.00 0.02 61 1013.5
20260831204908 90 180 7.0 11.0 0.00 0.00 0.02 62 1013.5
20260831204405 90 180 7.0 11.0 0.00 0.00 0.02 62 1013.5
20260831203904 90 203 7.0 11.0 0.00 0.00 0.02 61 1013.5
20260831203359 90 203 5.0 11.0 0.00 0.00 0.02 62 1013.9
20260831202854 91 180 7.0 11.0 0.00 0.00 0.02 61 1013.9
20260831202349 90 203 4.0 11.0 0.00 0.00 0.02 62 1013.9
20260831201848 91 270 9.0 11.0 0.00 0.00 0.02 61 1013.9
20260831201344 90 180 4.0 11.0 0.00 0.00 0.02 63 1013.9
20260831200839 89 180 7.0 11.0 0.00 0.00 0.02 65 1013.9
20260831200335 89 180 11.0 11.0 0.00 0.00 0.02 66 1013.9
20260831195829 89 180 5.0 11.0 0.00 0.00 0.02 66 1014.2
20260831195327 88 180 5.0 11.0 0.00 0.00 0.02 66 1014.2
20260831194825 89 180 6.0 11.0 0.00 0.00 0.02 66 1014.2
20260831194319 88 180 11.0 11.0 0.00 0.00 0.02 66 1014.2
20260831193815 87 158 6.0 9.0 0.00 0.00 0.02 67 1014.2
20260831193309 89 180 8.0 9.0 0.00 0.00 0.02 65 1014.6
20260831192809 88 158 4.0 9.0 0.00 0.00 0.02 68 1014.6
20260831192306 86 180 5.0 9.0 0.00 0.00 0.02 69 1014.9
20260831191805 84 180 4.0 7.0 0.00 0.00 0.02 72 1014.9
20260831191305 85 158 6.0 11.0 0.00 0.00 0.02 70 1014.9
20260831190759 85 135 4.0 11.0 0.00 0.00 0.02 73 1014.9
20260831190254 84 203 5.0 11.0 0.00 0.00 0.02 72 1014.9
20260831185750 82 180 5.0 11.0 0.00 0.00 0.02 75 1015.2
20260831185245 82 113 5.0 11.0 0.00 0.00 0.02 74 1015.2
20260831184740 81 135 5.0 11.0 0.00 0.00 0.02 77 1015.2
20260831184235 79 180 5.0 11.0 0.00 0.00 0.02 79 1015.2
20260831183729 79 203 4.0 11.0 0.00 0.00 0.02 79 1015.2
20260831183224 78 180 5.0 11.0 0.00 0.00 0.02 80 1015.6
20260831182720 77 158 4.0 11.0 0.00 0.00 0.02 81 1015.6
20260831182219 77 180 5.0 11.0 0.00 0.00 0.02 82 1015.6
20260831181709 79 180 5.0 11.0 0.00 0.00 0.02 76 1015.6
20260831181205 79 180 4.0 11.0 0.00 0.00 0.02 75 1015.6
20260831180705 79 135 5.0 8.0 0.00 0.00 0.02 74 1015.6
20260831180200 79 180 5.0 8.0 0.00 0.00 0.02 76 1015.6
20260831175654 79 203 5.0 8.0 0.00 0.00 0.02 77 1015.9
20260831175149 78 158 5.0 7.0 0.00 0.00 0.02 79 1015.9
20260831174645 78 158 5.0 7.0 0.00 0.00 0.02 80 1016.3
20260831174140 78 113 3.0 7.0 0.00 0.00 0.02 80 1016.3
20260831173635 77 180 2.0 7.0 0.00 0.00 0.02 81 1016.3
20260831173135 77 90 5.0 7.0 0.00 0.00 0.02 82 1016.6
20260831172635 76 203 5.0 6.0 0.00 0.00 0.02 83 1016.6
20260831172129 76 248 4.0 6.0 0.01 0.00 0.02 83 1016.3
20260831171624 76 203 2.0 6.0 0.01 0.00 0.02 84 1016.3
20260831171119 76 158 4.0 6.0 0.01 0.00 0.02 85 1016.3
20260831170615 75 293 2.0 6.0 0.01 0.00 0.02 85 1016.3
20260831170109 76 158 4.0 6.0 0.01 0.00 0.02 85 1016.3
20260831165605 76 180 2.0 6.0 0.01 0.00 0.02 86 1016.3
20260831165059 75 203 3.0 6.0 0.01 0.00 0.02 87 1016.3
20260831164555 74 158 4.0 6.0 0.01 0.00 0.02 87 1016.3
20260831164050 74 180 3.0 6.0 0.01 0.00 0.02 88 1016.3
20260831163545 74 135 5.0 6.0 0.01 0.00 0.02 90 1016.6
20260831163039 73 158 4.0 5.0 0.01 0.00 0.02 90 1016.6
20260831162535 73 180 4.0 5.0 0.01 0.00 0.02 89 1016.6
20260831162029 73 158 2.0 5.0 0.00 0.00 0.01 90 1016.9
20260831161524 73 113 2.0 5.0 0.00 0.00 0.01 88 1016.9
20260831161019 73 135 0.0 5.0 0.00 0.00 0.01 88 1017.3
20260831160514 73 113 4.0 5.0 0.00 0.00 0.01 87 1017.3
20260831160009 74 158 2.0 4.0 0.00 0.00 0.01 85 1017.3
20260831155504 74 180 2.0 5.0 0.00 0.00 0.01 86 1017.3
20260831154959 74 158 4.0 5.0 0.00 0.00 0.01 87 1017.3
20260831154454 74 180 3.0 5.0 0.00 0.00 0.01 87 1017.3
20260831153949 73 113 2.0 7.0 0.00 0.00 0.01 85 1017.3
20260831153444 73 113 2.0 7.0 0.00 0.00 0.01 85 1017.3
20260831152939 74 113 2.0 7.0 0.00 0.00 0.01 84 1017.3
20260831152434 74 113 2.0 7.0 0.00 0.00 0.01 83 1017.3
20260831151929 74 270 0.0 7.0 0.00 0.00 0.01 83 1017.3
20260831151424 74 270 2.0 7.0 0.00 0.00 0.01 83 1017.3
20260831150919 75 180 1.0 7.0 0.00 0.00 0.01 80 1016.6
20260831150414 75 225 1.0 7.0 0.00 0.00 0.01 79 1016.6
20260831145909 75 113 3.0 7.0 0.00 0.00 0.01 80 1016.3
20260831145404 75 135 2.0 8.0 0.00 0.00 0.01 79 1016.3
20260831144859 75 158 5.0 8.0 0.00 0.00 0.01 79 1016.3
20260831144354 75 180 2.0 8.0 0.00 0.00 0.01 80 1016.6
20260831143850 75 203 2.0 8.0 0.00 0.00 0.01 79 1016.6
20260831143346 75 293 4.0 8.0 0.00 0.00 0.01 80 1016.3
20260831142845 75 180 4.0 8.0 0.00 0.00 0.01 79 1016.3
20260831142339 75 203 4.0 8.0 0.00 0.00 0.01 79 1016.3
20260831141838 75 158 4.0 8.0 0.00 0.00 0.01 80 1016.3
20260831141335 75 180 5.0 8.0 0.00 0.00 0.01 79 1016.3
20260831140829 75 180 2.0 8.0 0.00 0.00 0.01 79 1016.3
20260831140324 75 180 4.0 8.0 0.00 0.00 0.01 79 1016.3
20260831135819 75 158 4.0 8.0 0.00 0.00 0.01 79 1016.3
20260831135314 75 180 5.0 6.0 0.00 0.00 0.01 79 1016.3
20260831134810 75 180 3.0 6.0 0.00 0.00 0.01 78 1016.6
20260831134309 75 203 2.0 6.0 0.00 0.00 0.01 79 1016.6
20260831133805 75 180 4.0 6.0 0.00 0.00 0.01 79 1016.6
20260831133305 75 180 4.0 6.0 0.00 0.00 0.01 80 1016.3
20260831132804 75 180 2.0 6.0 0.00 0.00 0.01 79 1016.3
20260831132300 75 158 4.0 7.0 0.00 0.00 0.01 79 1016.3
20260831131755 75 135 4.0 7.0 0.00 0.00 0.01 79 1016.3
20260831131250 75 180 5.0 7.0 0.00 0.00 0.01 79 1016.3
20260831130746 75 158 5.0 7.0 0.00 0.00 0.01 80 1016.3
20260831130239 74 180 2.0 7.0 0.00 0.00 0.01 81 1016.3
20260831125735 74 180 4.0 7.0 0.00 0.00 0.01 81 1016.3
20260831125230 74 180 4.0 7.0 0.00 0.00 0.01 82 1016.3
20260831124724 74 180 4.0 7.0 0.00 0.00 0.01 82 1015.9
20260831124219 73 158 2.0 7.0 0.00 0.00 0.01 82 1015.9
20260831123715 73 180 3.0 7.0 0.00 0.00 0.01 83 1015.9
20260831123210 73 180 6.0 7.0 0.00 0.00 0.01 84 1015.9
20260831122704 73 135 5.0 7.0 0.00 0.00 0.01 85 1015.9
20260831122159 73 180 4.0 7.0 0.00 0.00 0.01 84 1015.9
20260831121655 73 180 5.0 6.0 0.00 0.00 0.01 85 1015.9
20260831121149 73 158 4.0 6.0 0.00 0.00 0.01 84 1015.9
20260831120644 72 158 2.0 5.0 0.00 0.00 0.01 86 1015.6
20260831120139 72 180 4.0 5.0 0.00 0.00 0.01 86 1015.6
20260831115634 72 158 4.0 5.0 0.00 0.00 0.01 87 1015.6
20260831115129 72 180 4.0 5.0 0.00 0.00 0.01 87 1015.6
20260831114624 72 135 4.0 5.0 0.00 0.00 0.01 88 1015.2
20260831114119 71 203 2.0 5.0 0.00 0.00 0.01 88 1015.2
20260831113615 71 158 4.0 5.0 0.00 0.00 0.01 88 1015.2
20260831113109 71 158 3.0 5.0 0.00 0.00 0.01 89 1015.2
20260831112604 71 158 2.0 5.0 0.00 0.00 0.01 89 1015.2
20260831112059 71 135 4.0 5.0 0.00 0.00 0.01 89 1015.2
20260831111554 71 135 4.0 5.0 0.00 0.00 0.01 89 1015.2
20260831111049 71 135 4.0 5.0 0.00 0.00 0.01 89 1015.2
20260831110544 71 158 4.0 5.0 0.00 0.00 0.01 89 1015.2
20260831110039 71 158 4.0 6.0 0.00 0.00 0.01 89 1015.2
20260831105534 71 158 4.0 6.0 0.00 0.00 0.01 90 1015.2
20260831105029 71 158 4.0 6.0 0.00 0.00 0.01 90 1015.2
20260831104524 71 113 3.0 6.0 0.00 0.00 0.01 90 1015.2
20260831104019 71 158 4.0 6.0 0.00 0.00 0.01 90 1015.2
20260831103514 71 158 4.0 6.0 0.00 0.00 0.01 90 1015.2
20260831103009 71 158 3.0 6.0 0.00 0.00 0.01 90 1015.2
20260831102504 71 135 4.0 6.0 0.00 0.00 0.01 90 1015.2
20260831101959 71 158 4.0 6.0 0.00 0.00 0.01 90 1015.2
20260831101455 71 158 3.0 6.0 0.00 0.00 0.01 91 1015.2
20260831100949 71 180 4.0 6.0 0.00 0.00 0.01 90 1015.6
20260831100445 71 180 4.0 7.0 0.00 0.00 0.01 90 1015.6
20260831095939 71 180 2.0 7.0 0.00 0.00 0.01 91 1015.2
20260831095434 71 158 3.0 7.0 0.00 0.00 0.01 91 1015.2
20260831094929 71 113 5.0 7.0 0.00 0.00 0.01 91 1015.2
20260831094424 71 158 4.0 7.0 0.00 0.00 0.01 91 1015.2
20260831093920 71 113 4.0 7.0 0.00 0.00 0.01 91 1015.2
20260831093414 71 158 3.0 7.0 0.00 0.00 0.01 91 1015.2
20260831092909 71 158 4.0 7.0 0.00 0.00 0.01 92 1015.2
20260831092404 71 158 4.0 7.0 0.00 0.00 0.01 91 1015.2
20260831091859 71 180 4.0 7.0 0.00 0.00 0.01 92 1015.2
20260831091354 71 158 4.0 7.0 0.00 0.00 0.01 91 1015.2
20260831090849 71 180 3.0 7.0 0.00 0.00 0.01 90 1015.2
20260831090348 72 158 4.0 7.0 0.00 0.00 0.01 90 1015.2
20260831085846 71 158 3.0 6.0 0.00 0.00 0.01 91 1015.2
20260831085339 72 158 5.0 6.0 0.00 0.00 0.01 91 1015.2
20260831084838 72 158 4.0 6.0 0.00 0.00 0.01 90 1015.2
20260831084334 72 158 2.0 6.0 0.00 0.00 0.01 90 1015.2
20260831083829 72 113 4.0 6.0 0.00 0.00 0.01 90 1015.2
20260831083325 72 158 4.0 6.0 0.00 0.00 0.01 90 1015.2
20260831082820 72 158 4.0 6.0 0.00 0.00 0.01 90 1015.2
20260831082314 72 158 4.0 6.0 0.00 0.00 0.01 91 1015.2
20260831081809 72 158 4.0 6.0 0.00 0.00 0.01 91 1015.2
20260831081304 72 135 4.0 6.0 0.00 0.00 0.01 91 1015.2
20260831080800 72 158 4.0 6.0 0.00 0.00 0.01 92 1015.2